www.pogodaiklimat.ru

Погода и климат >> Архив погоды >> Россия >> Ставропольский край >> Новоалександровск


ПОГОДА в Новоалександровске

  • Прогноз погоды в Новоалександровске
  • Монитор погоды в Новоалександровске

АРХИВ ПОГОДЫ в Новоалександровске

Время (UTC), дата Ветер
(напр.,м/с)
 
Видим.   Явления Облачность Т
(С)
Тd
(С)
f
(%)
Тe
(С)
Тes
(С)
Комфортность P
(гПа)
Po
(гПа)
Тmin
(С)
Tmax
(С)
R
(мм)
R24
(мм)
S
(см)
03 17.04 штиль 0 4000 м пыльный позёмок 10/0 2000 м
[As op]
+9.5 +8.6 94 +9 +9 1010.7 997.3 +9.3
06 17.04 З 2 2000 м слаб. морось 10/10 600 м
[St]
+10.2 +9.8 97 +9 +9 1010.5 997.1
09 17.04 СВ 2 4000 м слаб. морось 10/10 600 м
[St]
+11.0 +10.3 95 +10 +10 1010.6 997.3
12 17.04 СВ 4
{12}
4000 м слаб. морось 10/10 600 м
[St]
+7.5 +6.4 93 +4 +4 1012.9 999.4
15 17.04 СВ 4
{14}
10 км слаб. дождь {морось} 10/10 600 м
[Frnb Ns]
+5.7 +4.5 92 +2 +2 1015.5 1001.9 +11.8 1
18 17.04 В 4
{14}
20 км {дождь, морось} 10/10 600 м
[Sc]
+5.1 +3.2 88 +1 +1 1018.0 1004.2
21 17.04 В 4
{16}
20 км 10/10 600 м
[Sc]
+4.5 +2.8 89 0 0 1019.4 1005.6
00 18.04 В 4
{12}
10 км слаб. дождь 10/0 600 м
[As op]
+1.5 -0.5 87 -4 -4 1020.5 1006.6
03 18.04 В 2 20 км {дождь} 10/0 2000 м
[As op]
+1.6 -0.6 85 -2 -2 1021.6 1007.6 +1.0 0.4
06 18.04 В 4 20 км {дождь} 10/3 600 м
[Frnb As op]
+3.4 -0.7 74 -1 -0 1021.7 1007.8
09 18.04 В 4 н/о н/о +7.6 -1.2 54 +5 +5 1022.8 1009.2
12 18.04 В 4 20 км 10/3 600 м
[Cu hum Ac und]
+8.3 -1.7 49 +6 +7 1022.6 1008.9
15 18.04 В 2 20 км 8/0 2000 м
[Ac As Cc]
+8.5 -4.4 40 +7 +8 1022.3 1008.6 +9.3
18 18.04 В 2 20 км 9/0 2000 м
[Ac trans Cs]
+6.3 -3.6 49 +5 +5 1022.8 1009.0
21 18.04 В 4 20 км 10/0
[Cs]
+4.7 -4.1 53 +1 +1 1022.8 1008.9
00 19.04 В 2 20 км 9/0
[Cs]
+2.8 -3.8 62 0 0 1021.8 1007.8
03 19.04 В 2 20 км 9/0
[Cs]
+1.7 -3.4 69 -1 -1 1021.7 1007.7 +1.5
06 19.04 В 2 20 км 10/10 600 м
[Cb cap]
+4.9 -3.4 55 +3 +3 1021.6 1007.7
09 19.04 В 2 20 км 10/0 2000 м
[Ac cast Cs]
+8.6 -6.0 35 +8 +17 1021.2 1007.5
12 19.04 В 4
{11}
20 км 10/0 2000 м
[As trans]
+9.1 -6.0 34 +7 +10 1020.5 1006.9
15 19.04 СВ 4-10
{11}
20 км 9/0 2000 м
[Ac trans Cc]
+8.4 -6.0 35 +6 +6 1020.5 1006.9 +9.9
18 19.04 В 3
{11}
20 км 4/0
[Cc]
+5.4 -7.1 40 +3 +3 1022.2 1008.4
21 19.04 В 3 20 км 3/0
[Cc]
+3.0 -6.5 50 -0 -0 1022.0 1008.1
00 20.04 В 2 20 км 4/0 2000 м
[Ac cast Cc]
+1.9 -4.7 62 -1 -1 1021.5 1007.6
03 20.04 В 2 20 км 9/0 2000 м
[Ac lent Cs]
+1.6 -2.6 74 -2 -1 1021.6 1007.7 +1.4
06 20.04 В 4
{11}
20 км 9/0
[Cs]
+7.8 -1.7 51 +5 +9 1022.1 1008.5
09 20.04 В 5-11
{14}
20 км 9/9 600 м
[Cu Sc]
+9.9 -3.7 38 +7 +8 1022.4 1008.9
12 20.04 В 4
{12}
20 км 9/8 600 м
[Cu Sc Cs]
+10.3 -3.5 38 +8 +9 1022.2 1008.7
15 20.04 В 3
{10}
20 км 9/3 600 м
[Sc Cs]
+9.9 -2.4 42 +8 +9 1022.5 1008.9 +11.3
18 20.04 В 1 20 км 1/0
[Ci fib]
+6.4 -1.5 57 +6 +6 1022.9 1009.2
21 20.04 В 2 20 км 3/0
[Ci fib]
+5.1 -1.9 61 +3 +3 1022.5 1008.8
00 21.04 В 2 20 км 8/0 2000 м
[Ac cast Cc]
+4.6 -1.4 65 +2 +2 1021.5 1007.7
03 21.04 В 2 20 км 9/0 2000 м
[Ac lent Cs]
+3.8 -1.4 69 +1 +1 1021.5 1007.7 +3.6
06 21.04 В 3 20 км 8/0 2000 м
[Ac trans Ci fib]
+8.9 -2.4 45 +7 +11 1021.5 1007.9
09 21.04 В 5-12
{13}
20 км ясно +13.5 -6.0 25 +12 +20 1020.7 1007.4
12 21.04 В 4-11
{13}
20 км 3/3 600 м
[Cu hum]
+14.5 -5.1 25 +14 +18 1020.2 1006.9
15 21.04 В 3
{12}
20 км 9/3 600 м
[Sc diur, vesp Ac trans]
+12.4 -3.8 32 +11 +12 1020.8 1007.4 +15.1
18 21.04 В 1 20 км 3/0 2000 м
[Ac trans]
+8.8 -0.6 52 +9 +9 1021.6 1008.0
21 21.04 В 2 20 км ясно +6.1 -0.6 62 +4 +4 1021.8 1008.1
00 22.04 В 2 20 км 1/0
[Ci fib]
+4.1 -0.8 70 +2 +2 1022.0 1008.2
03 22.04 В 2 20 км 3/0
[Ci fib]
+2.7 -1.1 76 -0 0 1022.6 1008.7 +2.3
06 22.04 В 4
{11}
20 км 3/1 600 м
[Cu hum Ci fib]
+10.2 +1.7 56 +8 +13 1022.5 1009.0
09 22.04 В 4-10
{14}
20 км 5/5 600 м
[Cu hum]
+14.1 -3.3 30 +13 +18 1022.3 1009.0
12 22.04 В 5-11
{12}
20 км 9/9 600 м
[Cu Sc]
+14.5 -3.1 29 +13 +14 1022.0 1008.6
15 22.04 В 3
{11}
20 км 8/8 600 м
[Sc]
+14.2 -3.0 30 +14 +14 1022.0 1008.7 +15.6
18 22.04 В 1 20 км 8/5 600 м
[Sc Ac trans]
+9.9 -1.2 46 +10 +10 1023.7 1010.2
21 22.04 В 1 20 км ясно +5.7 -1.0 62 +5 +5 1024.9 1011.1
00 23.04 В 1 20 км 3/0
[Ci fib]
+4.0 -1.5 67 +3 +3 1025.3 1011.4
03 23.04 В 1 20 км ясно +1.9 -1.5 78 0 +1 1026.4 1012.5 +1.3
06 23.04 СВ 3 20 км ясно +14.3 -2.4 31 +14 +21 1026.8 1013.5
09 23.04 В 3 20 км 3/0
[Ci fib]
+17.5 -4.6 22 +18 +30 опасность
простуды
1027.0 1013.7
12 23.04 СВ 2 20 км 3/0
[Ci sp]
+18.2 -5.2 20 +19 +28 1026.7 1013.5
15 23.04 В 1 20 км 1/0
[Ci fib]
+17.4 -5.4 21 +19 +20 1026.9 1013.7 +18.8
18 23.04 штиль 0 20 км ясно +8.6 -0.1 54 +8 +8 1028.3 1014.7
21 23.04 штиль 0 20 км ясно +4.6 +0.9 77 +4 +4 1028.4 1014.5

 

Местоположение метеостанции Новоалександровск (Ставропольский край, Россия): широта 45.50 долгота 41.20 высота над уровнем моря 110 м.

В архиве по умолчанию представлена погода в Новоалександровске за последнюю неделю. Архивные данные за месяц целиком и за предыдущие месяцы, начиная с января 2011 года, Вы можете получить, выбрав интересующий диапазон дат из раскрывающегося списка и нажав кнопку "Ввод!".


*Определитесь, кто Вы:
робот инопланетянин человек

Внимание! Время в таблицах - всемирное. Для получения местного времени необходимо прибавить поправку, которая равна 3 ч.

Смотрите также архив погоды в соседних городах и на ближайших метеорологических станциях:

Погода в Изобильном (Ставропольский край, Россия) (42 км)
Погода в Красногвардейском (Ставропольский край, Россия) (43 км)
Погода в Кропоткине (Краснодарский край, Россия) (50 км)
Погода в Армавире (Краснодарский край, Россия) (58 км)
Погода в Белой Глине (Краснодарский край, Россия) (69 км)
Погода в Ставрополе (Ставропольский край, Россия) (81 км)
Погода в Городовиковске (Калмыкия, Россия) (87 км)
Погода в Тихорецке (Краснодарский край, Россия) (95 км)
Погода в Дондуковской (Адыгея, Россия) (98 км)
Погода в Лабинске (Краснодарский край, Россия) (99 км)

Пояснения к столбцам:

Ветер - указаны скорость ветра в м/с - средняя за 10 мин, порывы в срок и между сроками (в фигурных скобках) и направление, откуда дует ветер: С - северный, СВ - северо-восточный, В - восточный, ЮВ - юго-восточный, Ю - южный, ЮЗ - юго-западный, З - западный, СЗ - северо-западный.
Видимость - горизонтальная дальность видимости в метрах или километрах. При видимости от 1 до 10 км при отсутствии осадков обычно наблюдается дымка, при ухудшении видимости до 1 км и менее - туман. В сухую погоду видимость может ухудшаться дымом, пылью или мглою.
Явления - указаны атмосферные явления, наблюдавшиеся в срок или в последний час перед сроком; фигурными скобками обозначены явления, наблюдавшиеся между сроками (за 1-3 часа до срока); квадратными скобками обозначены град или гололедные отложения с указанием их диаметра в мм.
Облачность - указаны через наклонную черту общая и нижняя облачность в баллах и высота нижней границы облаков в метрах; квадратными скобками обозначены формы облаков: Ci - перистые, Cs - перисто-слоистые, Cc - перисто-кучевые, Ac - высококучевые, As - высокослоистые, Sc - слоисто-кучевые, Ns - слоисто-дождевые, Cu - кучевые, Cb - кучево-дождевые. Подробнее классификацию облаков см. в Атласе облаков (PDF).
T - Температура воздуха - температура, измеренная на высоте 2 м над землей.
Td - Температура точки росы - температура, при понижении до которой содержащийся в воздухе водяной пар достигнет насыщения.
f - Относительная влажность воздуха - влажноcть воздуха, измеренная на высоте 2 м над землей.
Te - Эффективная температура - температура, которую ощущает одетый по сезону человек в тени. Характеристика душности погоды. При расчете учитывается влияние влажности воздуха и скорости ветра на теплоощущения человека.
Tes - Эффективная температура на солнце - температура, которую ощущает человек, с поправкой на солнечный нагрев. Характеристика знойности погоды. Зависит от высоты солнца над горизонтом, облачности и скорости ветра. Ночью, в пасмурную погоду, а также при ветре 12 м/с и более поправка равна нулю.
P - Атмосферное давление - приведенное к уровню моря атмосферное давление.
Po - Атмосферное давление - измеренное на уровне метеостанции атмосферное давление.
Tmin - Минимальная температура - минимум температуры воздуха на высоте 2 м над землей.
Tmax - Максимальная температура - максимум температуры воздуха на высоте 2 м над землей.
R - Количество осадков - Количество выпавших осадков за период времени, мм. При наведении курсора мыши на число - период времени, за который выпало указанное количество осадков.
R24 - Количество осадков - Количество выпавших осадков за 24 часа, мм.
S - Снежный покров - Высота снежного покрова, см. При наведении курсора мыши на число - состояние снежного покрова и степень покрытия местности в баллах.